KD4IGN Weather Reports


time (UTC)temp
F
wind
direction
speed
knots
gust
knots
rain 1hr
in
rain 24hr
in
rain mn
in
humidity
%
barometer
mb
20260504214538 53 340 4.3 7.8 0.00 0.24 0.24 48 1010.3
20260504213538 53 358 1.7 4.3 0.01 0.24 0.24 51 1010.3
20260504212518 53 336 1.7 3.5 0.01 0.24 0.24 48 1010.3
20260504211518 54 337 1.7 7.0 0.01 0.24 0.24 50 1010.5
20260504210518 53 338 0.9 3.5 0.01 0.24 0.24 52 1010.8
20260504205518 52 338 1.7 3.5 0.03 0.24 0.24 51 1011.1
20260504204518 50 269 0.0 2.6 0.05 0.24 0.24 64 1011.4
20260504203518 51 225 0.0 1.7 0.11 0.23 0.23 60 1011.5
20260504202518 50 4 0.0 1.7 0.16 0.23 0.23 60 1011.4
20260504201519 49 175 0.9 2.6 0.18 0.23 0.23 69 1011.6
20260504200519 46 137 0.0 1.7 0.21 0.23 0.23 83 1011.8
20260504195519 45 84 0.0 2.6 0.20 0.21 0.21 79 1011.8
20260504194519 46 273 0.9 4.3 0.18 0.19 0.19 73 1011.9
20260504193519 48 0 0.9 4.3 0.12 0.12 0.12 67 1012.0
20260504192519 48 308 0.0 1.7 0.06 0.07 0.07 66 1011.9
20260504191539 50 221 0.9 2.6 0.04 0.04 0.04 65 1011.9
20260504190517 51 328 0.9 5.2 0.01 0.01 0.01 50 1011.9
20260504185517 51 315 1.7 4.3 0.01 0.01 0.01 49 1011.8
20260504184517 50 352 2.6 7.8 0.01 0.01 0.01 50 1011.8
20260504183520 50 12 0.9 4.3 0.01 0.01 0.01 52 1011.9
20260504182520 52 333 2.6 7.0 0.01 0.01 0.01 48 1012.2
20260504181520 55 10 5.2 16.5 0.00 0.00 0.00 38 1012.0
20260504180518 56 134 1.7 5.2 0.00 0.00 0.00 36 1011.8
20260504175518 55 137 2.6 5.2 0.00 0.00 0.00 36 1011.8
20260504174518 56 160 3.5 7.0 0.00 0.00 0.00 36 1011.9
20260504173538 56 124 1.7 5.2 0.00 0.00 0.00 36 1012.0
20260504172518 54 138 3.5 8.7 0.00 0.00 0.00 37 1012.1
20260504171518 54 154 4.3 12.2 0.00 0.00 0.00 38 1012.2
20260504170518 54 134 1.7 5.2 0.00 0.00 0.00 38 1012.3
20260504150517 51 148 1.7 4.3 0.00 0.00 0.00 36 1012.4
20260504140517 50 179 0.9 3.5 0.00 0.00 0.00 34 1012.4
20260504130518 42 253 0.0 1.7 0.00 0.00 0.00 42 1012.2
20260504110519 31 192 0.0 1.7 0.00 0.00 0.00 58 1011.8
20260504100521 31 260 0.0 1.7 0.00 0.00 0.00 55 1012.0
20260504081518 34 215 0.0 0.9 0.00 0.00 0.00 50 1012.9
20260504080518 34 243 0.0 1.7 0.00 0.00 0.00 50 1013.0
20260504050520 39 210 0.0 1.7 0.00 0.00 0.00 48 1014.4
20260504045517 39 219 0.9 1.7 0.00 0.00 0.00 49 1014.5
20260504044517 39 207 0.0 1.7 0.00 0.00 0.00 51 1014.5
20260504043517 40 206 0.0 0.9 0.00 0.00 0.00 49 1014.6
20260504042540 40 203 0.0 0.9 0.00 0.00 0.00 47 1014.7
20260504041520 41 27 0.0 0.9 0.00 0.00 0.00 46 1014.8
20260504040518 41 187 0.0 0.0 0.00 0.00 0.00 45 1014.8
20260504035518 42 241 0.0 0.9 0.00 0.00 0.00 45 1014.7
20260504034518 42 0.0 0.0 0.00 0.00 0.00 45 1014.7
20260504033518 43 213 0.0 1.7 0.00 0.00 0.00 44 1014.7
20260504032518 44 247 0.0 0.9 0.00 0.00 0.00 43 1014.7
20260504031538 44 0.0 0.0 0.00 0.00 0.00 42 1014.6
20260504030518 45 229 0.0 1.7 0.00 0.00 0.00 42 1014.5
20260504025518 45 235 0.0 1.7 0.00 0.00 0.00 41 1014.4
20260504024519 46 200 0.0 0.9 0.00 0.00 0.00 41 1014.4
20260504023538 47 210 0.0 0.9 0.00 0.00 0.00 40 1014.2
20260504022539 48 296 0.0 1.7 0.00 0.00 0.00 39 1014.2
20260504021519 49 209 0.9 2.6 0.00 0.00 0.00 38 1014.2
20260504020539 50 209 0.9 2.6 0.00 0.00 0.00 37 1014.0
20260504015519 52 227 0.0 0.9 0.00 0.00 0.00 35 1013.9
20260504014519 53 205 0.0 0.9 0.00 0.00 0.00 34 1013.9
20260504013519 54 213 0.0 0.9 0.00 0.00 0.00 32 1013.8
20260504012517 54 146 0.9 3.5 0.00 0.00 0.00 31 1013.9
20260504011517 54 145 1.7 3.5 0.00 0.00 0.00 30 1014.0
20260504010519 55 171 1.7 5.2 0.00 0.00 0.00 32 1013.9
20260504005520 55 138 0.9 4.3 0.00 0.00 0.00 32 1014.2
20260504004520 55 170 2.6 9.6 0.00 0.00 0.00 31 1014.1
20260504003518 56 175 2.6 9.6 0.00 0.00 0.00 30 1014.2
20260504002517 56 152 2.6 9.6 0.00 0.00 0.00 31 1014.2
20260504001517 56 125 3.5 8.7 0.00 0.00 0.00 31 1014.4
20260504000517 57 167 3.5 13.0 0.00 0.00 0.00 30 1014.4
20260503235541 57 146 1.7 7.8 0.00 0.00 0.00 29 1014.4
20260503234517 58 162 2.6 9.6 0.00 0.00 0.00 27 1014.3
20260503233518 58 154 1.7 6.1 0.00 0.00 0.00 25 1014.3
20260503232519 58 163 0.9 2.6 0.00 0.00 0.00 27 1014.4
20260503231519 59 213 1.7 4.3 0.00 0.00 0.00 26 1014.3
20260503230518 58 303 1.7 4.3 0.00 0.00 0.00 25 1014.2
20260503225518 57 323 0.9 5.2 0.00 0.00 0.00 27 1014.4
20260503224518 57 6 3.5 13.0 0.00 0.00 0.00 29 1015.1
20260503223539 57 176 3.5 7.8 0.00 0.00 0.00 28 1014.5
20260503222519 58 155 4.3 11.3 0.00 0.00 0.00 27 1014.4
20260503221519 58 146 4.3 7.8 0.00 0.00 0.00 25 1014.5
20260503220519 59 147 4.3 9.6 0.00 0.00 0.00 24 1014.5
20260503215519 60 159 2.6 9.6 0.00 0.00 0.00 22 1014.6